Regional Weather Roundup
Issued by NWS Wakefield, VA

Home | Current Version | Previous Version | Text Only | Print | Product List | Glossary Off
Versions: 1 2 3 4 5 6 7 8 9 10 11 12 13 14 15 16 17 18 19 20 21 22 23 24 25 26 27 28 29 30 31 32 33 34 35 36 37 38 39 40 41 42 43 44 45 46 47 48 49 50

000
ASUS41 KAKQ 250114
RWRAKQ

REGIONAL WEATHER ROUNDUP
NATIONAL WEATHER SERVICE WAKEFIELD VA
900 PM EDT FRI APR 24 2015

Note: "fair" indicates few or no clouds below 12,000 feet with no
significant weather and/or obstructions to visibility. * = Denotes
station may not report precipitation (e.g., rain,snow,etc.),
thunder or fog.

VAZ042-051-052>054-056-250200-
NORTHERN VIRGINIA

CITY           SKY/WX    TMP DP  RH WIND       PRES   REMARKS
WASH NATIONAL  MOCLDY    57  21  24 NW7       29.94R
DULLES         MOCLDY    51  22  31 NW9       29.93S
FORT BELVOIR   CLEAR     52  24  34 VRB1      29.94R
QUANTICO       CLEAR     55  22  27 W3        29.95R
FREDERICKSBRG* CLEAR     55  26  32 CALM      29.93R
STAFFORD*      CLEAR     48  21  34 CALM      29.98R
WARRENTON      CLEAR     46  32  58 CALM      29.93R
CULPEPER*      CLEAR     48  30  49 CALM      29.94R
MANASSAS*      CLEAR     52  21  30 CALM      29.94S
LEESBURG*      CLEAR     54  27  35 NW9       29.94R
WINCHESTER     CLEAR     50  14  23 NW8       29.94S
FRONT ROYAL*   FAIR      52  21  30 CALM      29.93R
LURAY*         FAIR      52  27  37 CALM      29.95R
$$

VAZ048-049-060>072-079>083-250200-
CENTRAL AND SOUTH CENTRAL VIRGINIA

CITY           SKY/WX    TMP DP  RH WIND       PRES   REMARKS
RICHMOND       PTCLDY    55  30  38 CALM      29.94R
CHESTERFIELD*  FAIR      52  25  35 CALM      29.96R
PETERSBURG*    PTCLDY    45  38  77 CALM      29.95R
HANOVER        CLEAR     49  31  49 CALM      29.95R
TAPPAHANNOCK*  CLEAR     48  25  40 CALM      29.94R
QUINTON*       FAIR      51  32  48 CALM      29.94R
CHARLOTTSVILLE PTCLDY    56  17  21 N6        29.94R
GORDONSVILLE*  FAIR      49  27  41 NW5       29.95R
ORANGE*        PTCLDY    46  32  57 CALM      29.96R
LOUISA*        PTCLDY    55  21  26 NW3       29.93R
BUMPASS*       FAIR      50  31  47 NW7       29.94R
FARMVILLE*     MOCLDY    59  21  23 W6        29.93R
CREWE*         FAIR      57  21  24 W5        29.92S
FORT PICKETT*  FAIR      52  28  38 SW3       29.93R
CHASE CITY*    FAIR      52  42  69 CALM      29.94S
CLARKSVILLE*   FAIR      50  37  62 SW3       29.94S
SOUTH HILL*    PTCLDY    50  36  58 CALM      30.00R
LAWRENCEVILLE* FAIR      52  35  51 CALM      29.93R
EMPORIA*       PTCLDY    48  34  57 CALM      29.96R
$$

VAZ088>098-250200-
SOUTHEAST VIRGINIA

CITY           SKY/WX    TMP DP  RH WIND       PRES   REMARKS
NORFOLK        CLEAR     55  32  41 CALM      29.94R
VIRGINIA BEACH PTCLDY    53  39  59 SE9       29.95R
NORFOLK NAVAL  PTCLDY    60  29  30 CALM      29.96R
WEST POINT*    CLEAR     49  33  54 CALM      29.95R
SALUDA*        FAIR      48  32  53 NE3       29.94R
NEWPORT NEWS   CLEAR     51  33  50 NE3       29.94R
LANGLEY AFB    CLEAR     53  30  41 E8        29.94R
FORT EUSTIS    CLEAR     51  35  54 E2        29.93R
WILLIAMSBURG*  CLEAR     52  39  62 CALM      29.95R
HR EXEC AP*    FAIR      45  37  76 CALM      29.97R
FRANKLIN*      PTCLDY    49  37  62 CALM      29.95R
WAKEFIELD      PTCLDY    48  37  65 CALM      29.95R
$$

VAZ020-022-025-037-045-250200-
WEST CENTRAL AND SOUTHWEST VIRGINIA

CITY           SKY/WX    TMP DP  RH WIND       PRES   REMARKS
STAUNTON*      PTCLDY    54  17  23 NW8       29.96S
WAYNESBORO*    FAIR      49  20  31 W8        29.95R
HOT SPRINGS VA PTCLDY    44  10  24 W9        29.95S
LYNCHBURG      PTCLDY    51  22  31 CALM      29.96R
DANVILLE       MOCLDY    50  33  52 CALM      29.96R
SOUTH BOSTON*  FAIR      54  32  44 CALM      29.95R
MARTINSVILLE   PTCLDY    51  36  55 CALM      29.99R
ROANOKE        MOCLDY    56  17  21 N10       29.98S
BLACKSBURG     MOCLDY    51  22  32 NW5       30.01R
DUBLIN*        MOCLDY    54  22  28 NW3       30.00R
MARION*        PTCLDY    55  22  27 W7        30.02S
HILLSVILLE*    PTCLDY    55  21  26 CALM      29.99S
RICHLANDS*     FAIR     N/A N/A N/A CALM      30.00S
WISE*          CLOUDY    55  10  16 CALM      30.00F
ABINGDON*      MOCLDY    57  26  30 SW3       29.99F
$$

MDZ021>025-VAZ099-100-250200-
SOUTHERN MARYLAND AND THE DELMARVA PENINSULA

CITY           SKY/WX    TMP DP  RH WIND       PRES   REMARKS
PATUXENT RIVER PTCLDY    48  31  51 CALM      29.93R
BAY BRIDGE APT   N/A    N/A N/A N/A W6        29.93S
LEONARDTOWN    CLEAR     52  21  30 CALM      29.95R
DOVER          CLEAR     49  25  40 NW5       29.88R
GEORGETOWN     CLEAR     49  25  39 MISG      29.93R
EASTON         NOT AVBL
CAMBRIDGE      CLEAR     54  27  35 NW5       29.93R
SALISBURY      CLEAR     46  28  49 CALM      29.93R
OCEAN CITY     CLEAR     45  31  58 W3        29.93R
WALLOPS ISLAND CLEAR     50  26  39 NW6       29.94R
ACCOMACK*      CLEAR     45  30  57 CALM      29.94R
$$

NCZ012>017-030>032-250200-
NORTH CENTRAL AND EASTERN NORTH CAROLINA

CITY           SKY/WX    TMP DP  RH WIND       PRES   REMARKS
ROANOKE RAPIDS FAIR      50  37  62 SW3       29.95R
RALEIGH        PTCLDY    58  33  39 CALM      29.97R
ELIZABETH CITY PTCLDY    52  32  46 SW8       29.96R
AHOSKIE*       CLEAR     47  40  75 CALM      29.96S
EDENTON*       PTCLDY    52  37  57 CALM      29.96S
CURRITUCK*     PTCLDY    51  38  61 SE3       29.96R
KILL DEVIL HLS PTCLDY    48  39  73 SE6       29.97R
MANTEO         PTCLDY    48  40  72 SE5       29.98R
CAPE HATTERAS  PTCLDY    48  41  76 CALM      29.97R
TARBORO*       FAIR      50  46  87 CALM      29.98R
GOLDSBORO      MOCLDY    57  37  46 CALM      29.96R
WASHINGTON     PTCLDY    52  38  58 CALM      29.98R
GREENVILLE     PTCLDY    52  41  66 CALM      29.99R
NEW BERN       MOCLDY    52  38  58 CALM      29.99R
WILMINGTON     PTCLDY    60  41  49 SW10      30.00R
$$

VAZ048-250200-
ELSEWHERE

CITY           SKY/WX    TMP DP  RH WIND       PRES   REMARKS
HARRISBURG PA  PTCLDY    51  13  21 NW10      29.92R
BALTIMORE      PTCLDY    51  20  29 VRB3      29.92R
ANNAPOLIS      CLEAR     54  24  31 NW3       29.92R
ANDREWS AFB    PTCLDY    53  21  28 NW7       29.92R
PHILADELPHIA   CLEAR     54  16  22 W9        29.91R
HENDERSON NC   PTCLDY    54  35  49 CALM      29.96R
GREENSBORO     PTCLDY    58  29  33 SW7       29.96R
ROCKY MOUNT    CLEAR     51  43  74 CALM      29.97R
$$

VAZ100-250200-
MARINE

STATION/POSITION TIME  TEMP    WIND        PRES    WAVE   SWELL
                       AIR SEA DIR/SP/G            HT/PER HT/PER
                 (UTC) (F)     (DEG/KT/KT) (MB)    (FT/S) (FT/S)
BRANDYWINE LGT   0000   54 52  330/ 10/ 12 1012.6R
CAPE MAY NJ      0000   53 57  320/ 12/ 16 1012.1R
LEWES DE         0000   54 52  310/ 11/ 13 1012.5R
15NM E FENWICK I 0050   50 47              1012.9R   2/13
OCEAN-CITY-INLET 0000   54 53  330/  5/  7 1012.7R
WACHAPREAGUE VA  0000   54 61  320/  1/  4 1013.3S
THOMAS POINT MD  0100   56 53  310/  6/  7 1014.1R
GOOSES REEF MD   0100   55 53  340/  6/  8   N/A     2/ 2
COVE POINT MD    0000   57     340/ 10/ 11 1013.7R
SOLOMONS ISLAND  0000      57                N/A
BISHOPS HEAD MD  0000   55 58  350/  5/  8 1012.6F
PINEY POINT MD   0000           20/  4/  5   N/A
CAMBRIDGE MD     0000   57 59  310/ 10/ 13 1012.9R
LEWISETTA VA     0000   56 59              1013.0R
RAPPAHANNOCK LGT 0000          340/ 14/ 15 1013.7F
YORK RVR RNG VA  0000   61     360/  5/  6 1012.7R
YORKTOWN VA      0000   60 61   10/  5/  5 1012.9R
JAMESTOWN VA     0100   59 65  220/  4/  6 1013.0R
DOMINION TERM VA 0000   62     340/  5/  6 1013.2F
KIPTOPEKE VA     0000      64   80/  5/  6   N/A
CHES BAY BRIDGE  0000   57 58   80/  6/  7 1013.1R
CAPE HENRY VA    0000   57      60/  5/  7 1012.3S
CHESAPEAKE LGHT  0000   52      90/  8/  8 1014.4S
WILLOUBY STN VA  0000   61     340/  7/  8 1013.8F
S CRANEY ISL VA  0000           10/  2/  3 1013.3S
CAPE HENRY BUOY  0028      52                N/A     2/14   2/14
1ST LANDING BUOY 0100                      1014.3R   1/ 3
OFFSHORE WE BUOY 0011      51                N/A     3/ 4   2/ 4
64NM E OF VA BCH 0050   54 63   10/  6/  8 1014.3R   4/ 6   3/ 6
DUCK PIER NC     0000   51 56  130/  9/ 10 1013.4R
44056 DUCK FRF   0011      54                N/A     3/ 6   2/14
OREGON INLET NC  0000   49 56  120/  4/  8 1014.9R
HATTERAS NC      0000   58 66  120/  5/  7 1014.0S
DIAMOND SHLS NC  0050   59 73  200/  4/  6 1015.2R   6/ 9   5/ 9
CAPE LOOKOUT NC  0100   61     250/ 10/ 12 1015.1R
$$


USA.gov is the U.S. government's official web portal to all federal, state and local government web resources and services.